Year,Month,Day,Hour,Minute,Value (Times are PST for temperature in C)
2009,07,23,00,00,20.50
2009,07,23,00,01,20.40
2009,07,23,00,02,20.40
2009,07,23,00,03,20.40
2009,07,23,00,04,20.30
2009,07,23,00,05,20.30
2009,07,23,00,06,20.30
2009,07,23,00,07,20.20
2009,07,23,00,08,20.20
2009,07,23,00,09,20.20
2009,07,23,00,10,20.10
2009,07,23,00,11,20.10
2009,07,23,00,12,20.10
2009,07,23,00,13,20.00
2009,07,23,00,14,20.00
2009,07,23,00,15,20.00
2009,07,23,00,16,19.90
2009,07,23,00,17,19.90
2009,07,23,00,18,19.90
2009,07,23,00,19,19.90
2009,07,23,00,20,19.90
2009,07,23,00,21,19.80
2009,07,23,00,22,19.80
2009,07,23,00,23,19.80
2009,07,23,00,24,19.80
2009,07,23,00,25,19.70
2009,07,23,00,26,19.70
2009,07,23,00,27,19.70
2009,07,23,00,28,19.60
2009,07,23,00,29,19.60
2009,07,23,00,30,19.60
2009,07,23,00,31,19.50
2009,07,23,00,32,19.50
2009,07,23,00,33,19.50
2009,07,23,00,34,19.40
2009,07,23,00,35,19.40
2009,07,23,00,36,19.40
2009,07,23,00,37,19.40
2009,07,23,00,38,19.30
2009,07,23,00,39,19.30
2009,07,23,00,40,19.30
2009,07,23,00,41,19.30
2009,07,23,00,42,19.30
2009,07,23,00,43,19.20
2009,07,23,00,44,19.20
2009,07,23,00,45,19.20
2009,07,23,00,46,19.20
2009,07,23,00,47,19.20
2009,07,23,00,48,19.20
2009,07,23,00,49,19.10
2009,07,23,00,50,19.10
2009,07,23,00,51,19.10
2009,07,23,00,52,19.10
2009,07,23,00,53,19.10
2009,07,23,00,54,19.10
2009,07,23,00,55,19.10
2009,07,23,00,56,19.10
2009,07,23,00,57,19.10
2009,07,23,00,58,19.10
2009,07,23,00,59,19.00
2009,07,23,01,00,19.00
2009,07,23,01,01,19.00
2009,07,23,01,02,19.00
2009,07,23,01,03,19.00
2009,07,23,01,04,19.00
2009,07,23,01,05,19.00
2009,07,23,01,06,18.90
2009,07,23,01,07,18.90
2009,07,23,01,08,18.90
2009,07,23,01,09,18.90
2009,07,23,01,10,18.90
2009,07,23,01,11,18.80
2009,07,23,01,12,18.80
2009,07,23,01,13,18.80
2009,07,23,01,14,18.80
2009,07,23,01,15,18.80
2009,07,23,01,16,18.80
2009,07,23,01,17,18.80
2009,07,23,01,18,18.80
2009,07,23,01,19,18.80
2009,07,23,01,20,18.70
2009,07,23,01,21,18.70
2009,07,23,01,22,18.70
2009,07,23,01,23,18.70
2009,07,23,01,24,18.60
2009,07,23,01,25,18.60
2009,07,23,01,26,18.60
2009,07,23,01,27,18.60
2009,07,23,01,28,18.60
2009,07,23,01,29,18.60
2009,07,23,01,30,18.50
2009,07,23,01,31,18.50
2009,07,23,01,32,18.50
2009,07,23,01,33,18.40
2009,07,23,01,34,18.40
2009,07,23,01,35,18.40
2009,07,23,01,36,18.40
2009,07,23,01,37,18.40
2009,07,23,01,38,18.40
2009,07,23,01,39,18.40
2009,07,23,01,40,18.40
2009,07,23,01,41,18.30
2009,07,23,01,42,18.30
2009,07,23,01,43,18.30
2009,07,23,01,44,18.30
2009,07,23,01,45,18.30
2009,07,23,01,46,18.30
2009,07,23,01,47,18.20
2009,07,23,01,48,18.20
2009,07,23,01,49,18.20
2009,07,23,01,50,18.20
2009,07,23,01,51,18.10
2009,07,23,01,52,18.10
2009,07,23,01,53,18.10
2009,07,23,01,54,18.10
2009,07,23,01,55,18.10
2009,07,23,01,56,18.00
2009,07,23,01,57,18.00
2009,07,23,01,58,18.00
2009,07,23,01,59,18.00
2009,07,23,02,00,17.90
2009,07,23,02,01,17.90
2009,07,23,02,02,17.90
2009,07,23,02,03,17.90
2009,07,23,02,04,17.90
2009,07,23,02,05,17.90
2009,07,23,02,06,17.80
2009,07,23,02,07,17.80
2009,07,23,02,08,17.80
2009,07,23,02,09,17.80
2009,07,23,02,10,17.80
2009,07,23,02,11,17.80
2009,07,23,02,12,17.80
2009,07,23,02,13,17.80
2009,07,23,02,14,17.70
2009,07,23,02,15,17.70
2009,07,23,02,16,17.70
2009,07,23,02,17,17.70
2009,07,23,02,18,17.70
2009,07,23,02,19,17.70
2009,07,23,02,20,17.70
2009,07,23,02,21,17.60
2009,07,23,02,22,17.60
2009,07,23,02,23,17.60
2009,07,23,02,24,17.60
2009,07,23,02,25,17.60
2009,07,23,02,26,17.60
2009,07,23,02,27,17.60
2009,07,23,02,28,17.50
2009,07,23,02,29,17.50
2009,07,23,02,30,17.50
2009,07,23,02,31,17.50
2009,07,23,02,32,17.40
2009,07,23,02,33,17.40
2009,07,23,02,34,17.40
2009,07,23,02,35,17.40
2009,07,23,02,36,17.40
2009,07,23,02,37,17.40
2009,07,23,02,38,17.40
2009,07,23,02,39,17.40
2009,07,23,02,40,17.40
2009,07,23,02,41,17.30
2009,07,23,02,42,17.30
2009,07,23,02,43,17.30
2009,07,23,02,44,17.30
2009,07,23,02,45,17.30
2009,07,23,02,46,17.30
2009,07,23,02,47,17.30
2009,07,23,02,48,17.30
2009,07,23,02,49,17.20
2009,07,23,02,50,17.20
2009,07,23,02,51,17.20
2009,07,23,02,52,17.20
2009,07,23,02,53,17.20
2009,07,23,02,54,17.20
2009,07,23,02,55,17.20
2009,07,23,02,56,17.20
2009,07,23,02,57,17.20
2009,07,23,02,58,17.20
2009,07,23,02,59,17.20
2009,07,23,03,00,17.20
2009,07,23,03,01,17.20
2009,07,23,03,02,17.20
2009,07,23,03,03,17.20
2009,07,23,03,04,17.20
2009,07,23,03,05,17.20
2009,07,23,03,06,17.20
2009,07,23,03,07,17.20
2009,07,23,03,08,17.30
2009,07,23,03,09,17.30
2009,07,23,03,10,17.30
2009,07,23,03,11,17.30
2009,07,23,03,12,17.30
2009,07,23,03,13,17.30
2009,07,23,03,14,17.30
2009,07,23,03,15,17.30
2009,07,23,03,16,17.20
2009,07,23,03,17,17.20
2009,07,23,03,18,17.20
2009,07,23,03,19,17.20
2009,07,23,03,20,17.20
2009,07,23,03,21,17.20
2009,07,23,03,22,17.20
2009,07,23,03,23,17.20
2009,07,23,03,24,17.20
2009,07,23,03,25,17.20
2009,07,23,03,26,17.20
2009,07,23,03,27,17.20
2009,07,23,03,28,17.10
2009,07,23,03,29,17.10
2009,07,23,03,30,17.10
2009,07,23,03,31,17.10
2009,07,23,03,32,17.10
2009,07,23,03,33,17.00
2009,07,23,03,34,17.00
2009,07,23,03,35,17.00
2009,07,23,03,36,17.00
2009,07,23,03,37,17.00
2009,07,23,03,38,17.00
2009,07,23,03,39,17.00
2009,07,23,03,40,17.00
2009,07,23,03,41,17.00
2009,07,23,03,42,17.00
2009,07,23,03,43,17.00
2009,07,23,03,44,17.00
2009,07,23,03,45,17.00
2009,07,23,03,46,17.00
2009,07,23,03,47,17.00
2009,07,23,03,48,17.00
2009,07,23,03,49,17.00
2009,07,23,03,50,17.00
2009,07,23,03,51,17.00
2009,07,23,03,52,16.90
2009,07,23,03,53,16.90
2009,07,23,03,54,16.90
2009,07,23,03,55,16.90
2009,07,23,03,56,16.90
2009,07,23,03,57,16.90
2009,07,23,03,58,16.90
2009,07,23,03,59,16.90
2009,07,23,04,00,16.80
2009,07,23,04,01,16.80
2009,07,23,04,02,16.80
2009,07,23,04,03,16.80
2009,07,23,04,04,16.70
2009,07,23,04,05,16.70
2009,07,23,04,06,16.70
2009,07,23,04,07,16.70
2009,07,23,04,08,16.70
2009,07,23,04,09,16.60
2009,07,23,04,10,16.60
2009,07,23,04,11,16.60
2009,07,23,04,12,16.60
2009,07,23,04,13,16.60
2009,07,23,04,14,16.60
2009,07,23,04,15,16.50
2009,07,23,04,16,16.50
2009,07,23,04,17,16.50
2009,07,23,04,18,16.50
2009,07,23,04,19,16.50
2009,07,23,04,20,16.50
2009,07,23,04,21,16.50
2009,07,23,04,22,16.50
2009,07,23,04,23,16.40
2009,07,23,04,24,16.40
2009,07,23,04,25,16.40
2009,07,23,04,26,16.40
2009,07,23,04,27,16.40
2009,07,23,04,28,16.40
2009,07,23,04,29,16.40
2009,07,23,04,30,16.40
2009,07,23,04,31,16.40
2009,07,23,04,32,16.40
2009,07,23,04,33,16.40
2009,07,23,04,34,16.40
2009,07,23,04,35,16.30
2009,07,23,04,36,16.30
2009,07,23,04,37,16.30
2009,07,23,04,38,16.30
2009,07,23,04,39,16.30
2009,07,23,04,40,16.30
2009,07,23,04,41,16.20
2009,07,23,04,42,16.20
2009,07,23,04,43,16.20
2009,07,23,04,44,16.20
2009,07,23,04,45,16.20
2009,07,23,04,46,16.20
2009,07,23,04,47,16.20
2009,07,23,04,48,16.10
2009,07,23,04,49,16.10
2009,07,23,04,50,16.10
2009,07,23,04,51,16.10
2009,07,23,04,52,16.10
2009,07,23,04,53,16.10
2009,07,23,04,54,16.10
2009,07,23,04,55,16.10
2009,07,23,04,56,16.10
2009,07,23,04,57,16.10
2009,07,23,04,58,16.10
2009,07,23,04,59,16.10
2009,07,23,05,00,16.00
2009,07,23,05,01,16.00
2009,07,23,05,02,16.00
2009,07,23,05,03,16.00
2009,07,23,05,04,16.00
2009,07,23,05,05,16.00
2009,07,23,05,06,16.00
2009,07,23,05,07,16.00
2009,07,23,05,08,16.00
2009,07,23,05,09,15.90
2009,07,23,05,10,15.90
2009,07,23,05,11,15.90
2009,07,23,05,12,15.90
2009,07,23,05,13,15.90
2009,07,23,05,14,15.90
2009,07,23,05,15,15.90
2009,07,23,05,16,15.90
2009,07,23,05,17,15.90
2009,07,23,05,18,15.80
2009,07,23,05,19,15.80
2009,07,23,05,20,15.80
2009,07,23,05,21,15.80
2009,07,23,05,22,15.80
2009,07,23,05,23,15.80
2009,07,23,05,24,15.80
2009,07,23,05,25,15.80
2009,07,23,05,26,15.80
2009,07,23,05,27,15.80
2009,07,23,05,28,15.80
2009,07,23,05,29,15.80
2009,07,23,05,30,15.80
2009,07,23,05,31,15.80
2009,07,23,05,32,15.80
2009,07,23,05,33,15.80
2009,07,23,05,34,15.80
2009,07,23,05,35,15.80
2009,07,23,05,36,15.80
2009,07,23,05,37,15.80
2009,07,23,05,38,15.80
2009,07,23,05,39,15.80
2009,07,23,05,40,15.80
2009,07,23,05,41,15.70
2009,07,23,05,42,15.70
2009,07,23,05,43,15.70
2009,07,23,05,44,15.70
2009,07,23,05,45,15.70
2009,07,23,05,46,15.70
2009,07,23,05,47,15.70
2009,07,23,05,48,15.70
2009,07,23,05,49,15.70
2009,07,23,05,50,15.60
2009,07,23,05,51,15.60
2009,07,23,05,52,15.60
2009,07,23,05,53,15.60
2009,07,23,05,54,15.60
2009,07,23,05,55,15.60
2009,07,23,05,56,15.60
2009,07,23,05,57,15.60
2009,07,23,05,58,15.60
2009,07,23,05,59,15.60
2009,07,23,06,00,15.60
2009,07,23,06,01,15.60
2009,07,23,06,02,15.60
2009,07,23,06,03,15.60
2009,07,23,06,04,15.60
2009,07,23,06,05,15.60
2009,07,23,06,06,15.60
2009,07,23,06,07,15.60
2009,07,23,06,08,15.60
2009,07,23,06,09,15.60
2009,07,23,06,10,15.60
2009,07,23,06,11,15.60
2009,07,23,06,12,15.60
2009,07,23,06,13,15.70
2009,07,23,06,14,15.70
2009,07,23,06,15,15.70
2009,07,23,06,16,15.70
2009,07,23,06,17,15.70
2009,07,23,06,18,15.80
2009,07,23,06,19,15.80
2009,07,23,06,20,15.80
2009,07,23,06,21,15.80
2009,07,23,06,22,15.80
2009,07,23,06,23,15.90
2009,07,23,06,24,15.90
2009,07,23,06,25,15.90
2009,07,23,06,26,15.90
2009,07,23,06,27,15.90
2009,07,23,06,28,15.90
2009,07,23,06,29,15.90
2009,07,23,06,30,15.90
2009,07,23,06,31,15.90
2009,07,23,06,32,15.90
2009,07,23,06,33,15.90
2009,07,23,06,34,15.90
2009,07,23,06,35,15.90
2009,07,23,06,36,15.90
2009,07,23,06,37,15.90
2009,07,23,06,38,15.90
2009,07,23,06,39,15.90
2009,07,23,06,40,15.90
2009,07,23,06,41,15.90
2009,07,23,06,42,15.90
2009,07,23,06,43,15.90
2009,07,23,06,44,15.90
2009,07,23,06,45,15.90
2009,07,23,06,46,15.90
2009,07,23,06,47,15.90
2009,07,23,06,48,15.90
2009,07,23,06,49,15.80
2009,07,23,06,50,15.80
2009,07,23,06,51,15.80
2009,07,23,06,52,15.80
2009,07,23,06,53,15.80
2009,07,23,06,54,15.80
2009,07,23,06,55,15.80
2009,07,23,06,56,15.80
2009,07,23,06,57,15.80
2009,07,23,06,58,15.80
2009,07,23,06,59,15.80
2009,07,23,07,00,15.70
2009,07,23,07,01,15.70
2009,07,23,07,02,15.70
2009,07,23,07,03,15.80
2009,07,23,07,04,15.80
2009,07,23,07,05,15.80
2009,07,23,07,06,15.80
2009,07,23,07,07,15.80
2009,07,23,07,08,15.80
2009,07,23,07,09,15.80
2009,07,23,07,10,15.80
2009,07,23,07,11,15.90
2009,07,23,07,12,15.90
2009,07,23,07,13,15.90
2009,07,23,07,14,15.90
2009,07,23,07,15,16.00
2009,07,23,07,16,16.00
2009,07,23,07,17,16.00
2009,07,23,07,18,16.00
2009,07,23,07,19,16.00
2009,07,23,07,20,16.00
2009,07,23,07,21,16.00
2009,07,23,07,22,15.90
2009,07,23,07,23,15.90
2009,07,23,07,24,15.90
2009,07,23,07,25,15.90
2009,07,23,07,26,15.90
2009,07,23,07,27,15.90
2009,07,23,07,28,15.90
2009,07,23,07,29,15.90
2009,07,23,07,30,15.90
2009,07,23,07,31,15.90
2009,07,23,07,32,16.00
2009,07,23,07,33,16.00
2009,07,23,07,34,16.00
2009,07,23,07,35,16.00
2009,07,23,07,36,16.00
2009,07,23,07,37,16.10
2009,07,23,07,38,16.10
2009,07,23,07,39,16.10
2009,07,23,07,40,16.20
2009,07,23,07,41,16.20
2009,07,23,07,42,16.20
2009,07,23,07,43,16.20
2009,07,23,07,44,16.20
2009,07,23,07,45,16.30
2009,07,23,07,46,16.30
2009,07,23,07,47,16.30
2009,07,23,07,48,16.30
2009,07,23,07,49,16.30
2009,07,23,07,50,16.30
2009,07,23,07,51,16.30
2009,07,23,07,52,16.30
2009,07,23,07,53,16.30
2009,07,23,07,54,16.30
2009,07,23,07,55,16.30
2009,07,23,07,56,16.30
2009,07,23,07,57,16.30
2009,07,23,07,58,16.30
2009,07,23,07,59,16.30
2009,07,23,08,00,16.40
2009,07,23,08,01,16.40
2009,07,23,08,02,16.40
2009,07,23,08,03,16.50
2009,07,23,08,04,16.60
2009,07,23,08,05,16.60
2009,07,23,08,06,16.70
2009,07,23,08,07,16.70
2009,07,23,08,08,16.70
2009,07,23,08,09,16.80
2009,07,23,08,10,16.80
2009,07,23,08,11,16.80
2009,07,23,08,12,16.80
2009,07,23,08,13,16.80
2009,07,23,08,14,16.80
2009,07,23,08,15,16.80
2009,07,23,08,16,16.90
2009,07,23,08,17,16.90
2009,07,23,08,18,16.90
2009,07,23,08,19,16.90
2009,07,23,08,20,16.90
2009,07,23,08,21,17.00
2009,07,23,08,22,17.00
2009,07,23,08,23,17.10
2009,07,23,08,24,17.10
2009,07,23,08,25,17.20
2009,07,23,08,26,17.20
2009,07,23,08,27,17.30
2009,07,23,08,28,17.40
2009,07,23,08,29,17.40
2009,07,23,08,30,17.40
2009,07,23,08,31,17.40
2009,07,23,08,32,17.40
2009,07,23,08,33,17.40
2009,07,23,08,34,17.40
2009,07,23,08,35,17.40
2009,07,23,08,36,17.40
2009,07,23,08,37,17.40
2009,07,23,08,38,17.50
2009,07,23,08,39,17.50
2009,07,23,08,40,17.40
2009,07,23,08,41,17.30
2009,07,23,08,42,17.30
2009,07,23,08,43,17.30
2009,07,23,08,44,17.30
2009,07,23,08,45,17.30
2009,07,23,08,46,17.30
2009,07,23,08,47,17.30
2009,07,23,08,48,17.30
2009,07,23,08,49,17.40
2009,07,23,08,50,17.50
2009,07,23,08,51,17.60
2009,07,23,08,52,17.60
2009,07,23,08,53,17.50
2009,07,23,08,54,17.50
2009,07,23,08,55,17.50
2009,07,23,08,56,17.40
2009,07,23,08,57,17.40
2009,07,23,08,58,17.30
2009,07,23,08,59,17.20
2009,07,23,09,00,17.30
2009,07,23,09,01,17.30
2009,07,23,09,02,17.20
2009,07,23,09,03,17.20
2009,07,23,09,04,17.20
2009,07,23,09,05,17.20
2009,07,23,09,06,17.20
2009,07,23,09,07,17.30
2009,07,23,09,08,17.30
2009,07,23,09,09,17.30
2009,07,23,09,10,17.40
2009,07,23,09,11,17.40
2009,07,23,09,12,17.40
2009,07,23,09,13,17.50
2009,07,23,09,14,17.60
2009,07,23,09,15,17.60
2009,07,23,09,16,17.60
2009,07,23,09,17,17.70
2009,07,23,09,18,17.70
2009,07,23,09,19,17.70
2009,07,23,09,20,17.70
2009,07,23,09,21,17.70
2009,07,23,09,22,17.70
2009,07,23,09,23,17.80
2009,07,23,09,24,17.80
2009,07,23,09,25,17.80
2009,07,23,09,26,17.80
2009,07,23,09,27,17.80
2009,07,23,09,28,17.70
2009,07,23,09,29,17.70
2009,07,23,09,30,17.60
2009,07,23,09,31,17.50
2009,07,23,09,32,17.40
2009,07,23,09,33,17.30
2009,07,23,09,34,17.30
2009,07,23,09,35,17.30
2009,07,23,09,36,17.30
2009,07,23,09,37,17.30
2009,07,23,09,38,17.30
2009,07,23,09,39,17.30
2009,07,23,09,40,17.30
2009,07,23,09,41,17.30
2009,07,23,09,42,17.20
2009,07,23,09,43,17.20
2009,07,23,09,44,17.30
2009,07,23,09,45,17.30
2009,07,23,09,46,17.30
2009,07,23,09,47,17.40
2009,07,23,09,48,17.40
2009,07,23,09,49,17.50
2009,07,23,09,50,17.50
2009,07,23,09,51,17.60
2009,07,23,09,52,17.60
2009,07,23,09,53,17.70
2009,07,23,09,54,17.80
2009,07,23,09,55,17.90
2009,07,23,09,56,18.00
2009,07,23,09,57,18.10
2009,07,23,09,58,18.10
2009,07,23,09,59,18.10
2009,07,23,10,00,18.10
2009,07,23,10,01,18.10
2009,07,23,10,02,18.10
2009,07,23,10,03,18.10
2009,07,23,10,04,18.20
2009,07,23,10,05,18.20
2009,07,23,10,06,18.20
2009,07,23,10,07,18.30
2009,07,23,10,08,18.30
2009,07,23,10,09,18.30
2009,07,23,10,10,18.20
2009,07,23,10,11,18.20
2009,07,23,10,12,18.10
2009,07,23,10,13,18.00
2009,07,23,10,14,17.90
2009,07,23,10,15,17.90
2009,07,23,10,16,17.90
2009,07,23,10,17,17.80
2009,07,23,10,18,17.70
2009,07,23,10,19,17.60
2009,07,23,10,20,17.50
2009,07,23,10,21,17.40
2009,07,23,10,22,17.50
2009,07,23,10,23,17.50
2009,07,23,10,24,17.40
2009,07,23,10,25,17.40
2009,07,23,10,26,17.50
2009,07,23,10,27,17.40
2009,07,23,10,28,17.30
2009,07,23,10,29,17.20
2009,07,23,10,30,17.30
2009,07,23,10,31,17.30
2009,07,23,10,32,17.30
2009,07,23,10,33,17.30
2009,07,23,10,34,17.40
2009,07,23,10,35,17.40
2009,07,23,10,36,17.40
2009,07,23,10,37,17.50
2009,07,23,10,38,17.50
2009,07,23,10,39,17.60
2009,07,23,10,40,17.60
2009,07,23,10,41,17.70
2009,07,23,10,42,17.60
2009,07,23,10,43,17.50
2009,07,23,10,44,17.50
2009,07,23,10,45,17.50
2009,07,23,10,46,17.40
2009,07,23,10,47,17.40
2009,07,23,10,48,17.40
2009,07,23,10,49,17.40
2009,07,23,10,50,17.50
2009,07,23,10,51,17.60
2009,07,23,10,52,17.60
2009,07,23,10,53,17.60
2009,07,23,10,54,17.70
2009,07,23,10,55,17.70
2009,07,23,10,56,17.70
2009,07,23,10,57,17.70
2009,07,23,10,58,17.70
2009,07,23,10,59,17.70
2009,07,23,11,00,17.70
2009,07,23,11,01,17.70
2009,07,23,11,02,17.70
2009,07,23,11,03,17.70
2009,07,23,11,04,17.70
2009,07,23,11,05,17.70
2009,07,23,11,06,17.60
2009,07,23,11,07,17.60
2009,07,23,11,08,17.60
2009,07,23,11,09,17.60
2009,07,23,11,10,17.60
2009,07,23,11,11,17.60
2009,07,23,11,12,17.70
2009,07,23,11,13,17.70
2009,07,23,11,14,17.80
2009,07,23,11,15,17.90
2009,07,23,11,16,17.90
2009,07,23,11,17,18.00
2009,07,23,11,18,18.10
2009,07,23,11,19,18.20
2009,07,23,11,20,18.40
2009,07,23,11,21,18.50
2009,07,23,11,22,18.50
2009,07,23,11,23,18.50
2009,07,23,11,24,18.40
2009,07,23,11,25,18.40
2009,07,23,11,26,18.40
2009,07,23,11,27,18.40
2009,07,23,11,28,18.50
2009,07,23,11,29,18.60
2009,07,23,11,30,18.50
2009,07,23,11,31,18.40
2009,07,23,11,32,18.40
2009,07,23,11,33,18.30
2009,07,23,11,34,18.30
2009,07,23,11,35,18.20
2009,07,23,11,36,18.30
2009,07,23,11,37,18.40
2009,07,23,11,38,18.50
2009,07,23,11,39,18.50
2009,07,23,11,40,18.40
2009,07,23,11,41,18.40
2009,07,23,11,42,18.30
2009,07,23,11,43,18.20
2009,07,23,11,44,18.10
2009,07,23,11,45,18.10
2009,07,23,11,46,18.00
2009,07,23,11,47,18.00
2009,07,23,11,48,18.10
2009,07,23,11,49,18.10
2009,07,23,11,50,18.20
2009,07,23,11,51,18.20
2009,07,23,11,52,18.30
2009,07,23,11,53,18.40
2009,07,23,11,54,18.50
2009,07,23,11,55,18.50
2009,07,23,11,56,18.30
2009,07,23,11,57,18.20
2009,07,23,11,58,18.10
2009,07,23,11,59,18.10
2009,07,23,12,00,18.10
2009,07,23,12,01,18.00
2009,07,23,12,02,18.10
2009,07,23,12,03,18.20
2009,07,23,12,04,18.30
2009,07,23,12,05,18.40
2009,07,23,12,06,18.50
2009,07,23,12,07,18.60
2009,07,23,12,08,18.60
2009,07,23,12,09,18.70
2009,07,23,12,10,18.70
2009,07,23,12,11,18.80
2009,07,23,12,12,18.80
2009,07,23,12,13,18.80
2009,07,23,12,14,18.80
2009,07,23,12,15,18.80
2009,07,23,12,16,18.80
2009,07,23,12,17,18.80
2009,07,23,12,18,18.80
2009,07,23,12,19,18.80
2009,07,23,12,20,18.80
2009,07,23,12,21,18.80
2009,07,23,12,22,18.70
2009,07,23,12,23,18.70
2009,07,23,12,24,18.70
2009,07,23,12,25,18.60
2009,07,23,12,26,18.60
2009,07,23,12,27,18.60
2009,07,23,12,28,18.60
2009,07,23,12,29,18.60
2009,07,23,12,30,18.70
2009,07,23,12,31,18.70
2009,07,23,12,32,18.80
2009,07,23,12,33,18.90
2009,07,23,12,34,18.90
2009,07,23,12,35,18.90
2009,07,23,12,36,19.00
2009,07,23,12,37,19.00
2009,07,23,12,38,19.10
2009,07,23,12,39,19.10
2009,07,23,12,40,19.10
2009,07,23,12,41,19.10
2009,07,23,12,42,19.10
2009,07,23,12,43,19.20
2009,07,23,12,44,19.20
2009,07,23,12,45,19.20
2009,07,23,12,46,19.30
2009,07,23,12,47,19.30
2009,07,23,12,48,19.30
2009,07,23,12,49,19.20
2009,07,23,12,50,19.20
2009,07,23,12,51,19.20
2009,07,23,12,52,19.10
2009,07,23,12,53,19.10
2009,07,23,12,54,19.10
2009,07,23,12,55,18.90
2009,07,23,12,56,18.80
2009,07,23,12,57,18.70
2009,07,23,12,58,18.60
2009,07,23,12,59,18.60
2009,07,23,13,00,18.60
2009,07,23,13,01,18.60
2009,07,23,13,02,18.50
2009,07,23,13,03,18.40
2009,07,23,13,04,18.20
2009,07,23,13,05,18.20
2009,07,23,13,06,18.10
2009,07,23,13,07,18.00
2009,07,23,13,08,17.90
2009,07,23,13,09,17.90
2009,07,23,13,10,17.90
2009,07,23,13,11,17.90
2009,07,23,13,12,17.80
2009,07,23,13,13,17.80
2009,07,23,13,14,17.80
2009,07,23,13,15,18.00
2009,07,23,13,16,18.10
2009,07,23,13,17,18.20
2009,07,23,13,18,18.20
2009,07,23,13,19,18.20
2009,07,23,13,20,18.20
2009,07,23,13,21,18.30
2009,07,23,13,22,18.40
2009,07,23,13,23,18.50
2009,07,23,13,24,18.50
2009,07,23,13,25,18.50
2009,07,23,13,26,18.40
2009,07,23,13,27,18.20
2009,07,23,13,28,18.10
2009,07,23,13,29,18.10
2009,07,23,13,30,18.10
2009,07,23,13,31,18.10
2009,07,23,13,32,18.20
2009,07,23,13,33,18.20
2009,07,23,13,34,18.20
2009,07,23,13,35,18.20
2009,07,23,13,36,18.20
2009,07,23,13,37,18.30
2009,07,23,13,38,18.20
2009,07,23,13,39,18.20
2009,07,23,13,40,18.20
2009,07,23,13,41,18.20
2009,07,23,13,42,18.30
2009,07,23,13,43,18.30
2009,07,23,13,44,18.30
2009,07,23,13,45,18.30
2009,07,23,13,46,18.30
2009,07,23,13,47,18.30
2009,07,23,13,48,18.30
2009,07,23,13,49,18.30
2009,07,23,13,50,18.30
2009,07,23,13,51,18.20
2009,07,23,13,52,18.10
2009,07,23,13,53,18.10
2009,07,23,13,54,18.10
2009,07,23,13,55,18.10
2009,07,23,13,56,18.20
2009,07,23,13,57,18.20
2009,07,23,13,58,18.20
2009,07,23,13,59,18.20
2009,07,23,14,00,18.20
2009,07,23,14,01,18.10
2009,07,23,14,02,18.10
2009,07,23,14,03,18.10
2009,07,23,14,04,18.10
2009,07,23,14,05,18.10
2009,07,23,14,06,18.10
2009,07,23,14,07,18.10
2009,07,23,14,08,18.10
2009,07,23,14,09,18.00
2009,07,23,14,10,18.00
2009,07,23,14,11,18.00
2009,07,23,14,12,18.10
2009,07,23,14,13,18.20
2009,07,23,14,14,18.30
2009,07,23,14,15,18.50
2009,07,23,14,16,18.60
2009,07,23,14,17,18.70
2009,07,23,14,18,18.70
2009,07,23,14,19,18.80
2009,07,23,14,20,18.90
2009,07,23,14,21,19.00
2009,07,23,14,22,19.00
2009,07,23,14,23,19.10
2009,07,23,14,24,19.10
2009,07,23,14,25,19.20
2009,07,23,14,26,19.20
2009,07,23,14,27,19.20
2009,07,23,14,28,19.20
2009,07,23,14,29,19.20
2009,07,23,14,30,19.30
2009,07,23,14,31,19.40
2009,07,23,14,32,19.40
2009,07,23,14,33,19.40
2009,07,23,14,34,19.40
2009,07,23,14,35,19.30
2009,07,23,14,36,19.30
2009,07,23,14,37,19.30
2009,07,23,14,38,19.20
2009,07,23,14,39,19.20
2009,07,23,14,40,19.10
2009,07,23,14,41,19.10
2009,07,23,14,42,19.10
2009,07,23,14,43,19.10
2009,07,23,14,44,19.10
2009,07,23,14,45,19.20
2009,07,23,14,46,19.20
2009,07,23,14,47,19.20
2009,07,23,14,48,19.20
2009,07,23,14,49,19.20
2009,07,23,14,50,19.20
2009,07,23,14,51,19.20
2009,07,23,14,52,19.20
2009,07,23,14,53,19.20
2009,07,23,14,54,19.20
2009,07,23,14,55,19.20
2009,07,23,14,56,19.20
2009,07,23,14,57,19.20
2009,07,23,14,58,19.20
2009,07,23,14,59,19.20
2009,07,23,15,00,19.20
2009,07,23,15,01,19.10
2009,07,23,15,02,19.10
2009,07,23,15,03,19.10
2009,07,23,15,04,19.10
2009,07,23,15,05,19.10
2009,07,23,15,06,19.20
2009,07,23,15,07,19.20
2009,07,23,15,08,19.20
2009,07,23,15,09,19.20
2009,07,23,15,10,19.00
2009,07,23,15,11,18.90
2009,07,23,15,12,18.80
2009,07,23,15,13,18.80
2009,07,23,15,14,18.70
2009,07,23,15,15,18.70
2009,07,23,15,16,18.70
2009,07,23,15,17,18.80
2009,07,23,15,18,18.80
2009,07,23,15,19,18.90
2009,07,23,15,20,18.90
2009,07,23,15,21,19.00
2009,07,23,15,22,19.10
2009,07,23,15,23,19.10
2009,07,23,15,24,19.10
2009,07,23,15,25,19.20
2009,07,23,15,26,19.30
2009,07,23,15,27,19.30
2009,07,23,15,28,19.40
2009,07,23,15,29,19.50
2009,07,23,15,30,19.50
2009,07,23,15,31,19.50
2009,07,23,15,32,19.50
2009,07,23,15,33,19.60
2009,07,23,15,34,19.60
2009,07,23,15,35,19.70
2009,07,23,15,36,19.80
2009,07,23,15,37,19.80
2009,07,23,15,38,19.80
2009,07,23,15,39,19.80
2009,07,23,15,40,19.80
2009,07,23,15,41,19.80
2009,07,23,15,42,19.80
2009,07,23,15,43,19.80
2009,07,23,15,44,19.80
2009,07,23,15,45,19.70
2009,07,23,15,46,19.70
2009,07,23,15,47,19.80
2009,07,23,15,48,19.80
2009,07,23,15,49,19.80
2009,07,23,15,50,19.80
2009,07,23,15,51,19.80
2009,07,23,15,52,19.80
2009,07,23,15,53,19.90
2009,07,23,15,54,19.90
2009,07,23,15,55,19.90
2009,07,23,15,56,19.90
2009,07,23,15,57,19.90
2009,07,23,15,58,19.90
2009,07,23,15,59,19.90
2009,07,23,16,00,19.90
2009,07,23,16,01,19.80
2009,07,23,16,02,19.80
2009,07,23,16,03,19.90
2009,07,23,16,04,19.90
2009,07,23,16,05,19.90
2009,07,23,16,06,19.90
2009,07,23,16,07,20.00
2009,07,23,16,08,19.90
2009,07,23,16,09,19.90
2009,07,23,16,10,19.90
2009,07,23,16,11,19.90
2009,07,23,16,12,19.90
2009,07,23,16,13,20.00
2009,07,23,16,14,20.10
2009,07,23,16,15,20.10
2009,07,23,16,16,20.10
2009,07,23,16,17,20.10
2009,07,23,16,18,20.00
2009,07,23,16,19,19.90
2009,07,23,16,20,19.90
2009,07,23,16,21,19.80
2009,07,23,16,22,19.80
2009,07,23,16,23,19.90
2009,07,23,16,24,19.80
2009,07,23,16,25,19.80
2009,07,23,16,26,19.90
2009,07,23,16,27,20.00
2009,07,23,16,28,20.00
2009,07,23,16,29,20.10
2009,07,23,16,30,20.20
2009,07,23,16,31,20.30
2009,07,23,16,32,20.40
2009,07,23,16,33,20.50
2009,07,23,16,34,20.60
2009,07,23,16,35,20.60
2009,07,23,16,36,20.70
2009,07,23,16,37,20.60
2009,07,23,16,38,20.60
2009,07,23,16,39,20.60
2009,07,23,16,40,20.70
2009,07,23,16,41,20.70
2009,07,23,16,42,20.60
2009,07,23,16,43,20.60
2009,07,23,16,44,20.60
2009,07,23,16,45,20.60
2009,07,23,16,46,20.60
2009,07,23,16,47,20.50
2009,07,23,16,48,20.40
2009,07,23,16,49,20.40
2009,07,23,16,50,20.30
2009,07,23,16,51,20.20
2009,07,23,16,52,20.20
2009,07,23,16,53,20.10
2009,07,23,16,54,20.00
2009,07,23,16,55,20.00
2009,07,23,16,56,20.00
2009,07,23,16,57,19.90
2009,07,23,16,58,19.90
2009,07,23,16,59,20.00
2009,07,23,17,00,20.10
2009,07,23,17,01,20.10
2009,07,23,17,02,20.20
2009,07,23,17,03,20.20
2009,07,23,17,04,20.20
2009,07,23,17,05,20.20
2009,07,23,17,06,20.30
2009,07,23,17,07,20.30
2009,07,23,17,08,20.30
2009,07,23,17,09,20.30
2009,07,23,17,10,20.40
2009,07,23,17,11,20.40
2009,07,23,17,12,20.40
2009,07,23,17,13,20.40
2009,07,23,17,14,20.40
2009,07,23,17,15,20.40
2009,07,23,17,16,20.50
2009,07,23,17,17,20.60
2009,07,23,17,18,20.70
2009,07,23,17,19,20.80